Location: Fredericksburg
(30.2750°N, 98.8720°W)
Time: 02:34:44
(UTC-05:00)

ISS - All Passes

Search period start: 19 August 2017 00:00
Search period end: 29 August 2017 00:00
Orbit: 401 x 408 km, 51.6° (Epoch: 19 August)

Date Brightness Start Highest point End Pass type
(mag) Time Alt. Az. Time Alt. Az. Time Alt. Az.
19 Aug - 10:12:08 10° S 10:14:47 23° SE 10:17:25 10° ENE daylight
19 Aug - 11:48:32 10° W 11:51:10 22° NW 11:53:48 10° NNE daylight
19 Aug - 18:20:27 10° NNW 18:23:07 23° NE 18:25:46 10° E daylight
19 Aug - 19:56:56 10° WNW 19:59:29 21° SW 20:02:01 10° S daylight
20 Aug - 09:22:13 10° SE 09:22:42 10° SE 09:23:11 10° ESE daylight
20 Aug - 10:55:40 10° WSW 10:58:49 45° NW 11:01:59 10° NNE daylight
20 Aug - 17:29:07 10° N 17:30:40 13° NE 17:32:12 10° ENE daylight
20 Aug - 19:04:11 10° NW 19:07:20 49° SW 19:10:29 10° SSE daylight
21 Aug - 10:03:17 10° SW 10:06:32 75° SE 10:09:49 10° NE daylight
21 Aug - 11:43:00 10° NW 11:43:22 10° NNW 11:43:43 10° NNW daylight
21 Aug - 18:11:53 10° NW 18:15:06 65° NE 18:18:19 10° SE daylight
22 Aug - 09:11:27 10° SSW 09:14:21 30° SE 09:17:17 10° ENE daylight
22 Aug - 10:48:31 10° W 10:50:51 18° NW 10:53:11 10° N daylight
22 Aug - 17:19:52 10° NNW 17:22:46 29° NE 17:25:39 10° ESE daylight
22 Aug - 18:56:56 10° W 18:59:02 16° SW 19:01:07 10° SSW daylight
23 Aug - 08:20:28 10° SSE 08:22:13 14° SE 08:23:58 10° E daylight
23 Aug - 09:55:24 10° WSW 09:58:25 34° NW 10:01:27 10° NNE daylight
23 Aug - 16:28:16 10° N 16:30:19 15° NE 16:32:21 10° ENE daylight
23 Aug - 18:03:52 10° WNW 18:06:53 36° SW 18:09:53 10° SSE daylight
24 Aug - 09:02:49 10° SW 09:06:05 80° NW 09:09:22 10° NE daylight
24 Aug - 17:11:23 10° NW 17:14:39 89° ENE 17:17:52 10° SE daylight
25 Aug - 08:10:43 10° SSW 08:13:49 40° SE 08:16:55 10° ENE daylight
25 Aug - 09:48:29 10° WNW 09:50:25 15° NW 09:52:21 10° N daylight
25 Aug - 16:19:14 10° NNW 16:22:17 37° NE 16:25:20 10° ESE daylight
25 Aug - 17:57:04 10° W 17:58:28 12° SW 17:59:51 10° SSW daylight
26 Aug - 07:19:19 10° S 07:21:37 18° SE 07:23:56 10° E daylight
26 Aug - 08:55:05 10° W 08:57:55 27° NW 09:00:46 10° NNE daylight
26 Aug - 15:27:25 10° N 15:29:50 19° NE 15:32:15 10° E daylight
26 Aug - 17:03:29 10° WNW 17:06:18 27° SW 17:09:05 10° S daylight
27 Aug - 08:02:17 10° SW 08:05:31 58° NW 08:08:45 10° NE daylight
27 Aug - 14:36:26 10° NNE 14:37:16 11° NNE 14:38:07 10° NE daylight
27 Aug - 16:10:48 10° NW 16:14:03 67° SW 16:17:16 10° SE daylight
28 Aug - 07:09:58 10° SSW 07:13:10 56° SE 07:16:25 10° NE daylight
28 Aug - 08:48:30 10° WNW 08:49:53 12° NW 08:51:17 10° N daylight
28 Aug - 15:18:31 10° NNW 15:21:41 49° NE 15:24:51 10° ESE daylight
